[[{"header":{"parameterUnit":"m.s-1","parameterCategory":1,"la1":30.2991,"la2":30.254,"lo1":-89.0895,"lo2":-89.0444,"dy":0.0017,"dx":0.0017,"nx":28,"ny":28,"refTime":"2025-08-21T03:00:00:Z","depth":0,"parameterNumber":2,"parameterNumberName":"U-component_of_WINDS"},"data":[0,0,0,0,0,0,0,0,0,0,0,0,0,0,0,0,0,0,0,0,0,0,0,0,0,0,0,0,0,0,0,0,0,0,0,0,0,0,0,0,0,0,0,0,0,0,0,0,0,0,0,0,0,0,0,0,0,0,0.0223,0.0225,0,0.0411,0.0413,0.0416,0.0481,0.048,0.048,0.0479,0.0682,0.0688,0.0694,0,0,0,0,0,0,0,0,0,0,0,0,0,-0.0072,-0.0067,0.0223,0.0225,0.0228,0.0411,0.0413,0.0416,0.0481,0.048,0.0479,0.0479,0.068,0.0687,0.0694,0,0,0,0,0,0,0,0,0,0,0,0,0,0.008,-0.0066,0.0222,0.0282,0.0289,0.041,0.0414,0.0417,0.0481,0.048,0.0479,0.0478,0.0677,0.0686,0.0695,0.0774,0,0,0.0723,0.0727,0,0,0,0,0,0,0,0,0.0071,0.0091,0.0271,0.0278,0.0286,0.0421,0.0384,0.0537,0.0482,0.0409,0.0479,0.0478,0.0597,0.0612,0.065,0.0784,0.0792,0.0724,0.073,0.0733,0.0736,0,0,0,0,0,0,0,0.0061,0.0083,0.0298,0.0273,0.0283,0.0302,0.0322,0.0413,0.0507,0.0415,0.042,0.0441,0.0601,0.0641,0.0656,0.0795,0.0724,0.0732,0.0738,0.0741,0.1001,0.1003,0,0,0,0,0,0,0.0039,0.0074,0.0292,0.0303,0.0173,0.0308,0.0331,0.0379,0.0506,0.0524,0.0442,0.0443,0.0626,0.0645,0.0663,0.0763,0.0733,0.0742,0.0747,0.1,0.1002,0.1003,0,0,0,0,0,0,0.0032,0.0058,0.0284,0.019,0.022,0.0314,0.0368,0.0384,0.0424,0.0526,0.0544,0.0465,0.0626,0.065,0.0745,0.0771,0.0746,0.0754,0.0998,0.1,0.1002,0.0963,0,0,0,0,0,0,0.0024,0.0055,0.0084,0.019,0.0225,0.036,0.037,0.0388,0.0439,0.0443,0.0553,0.0571,0.0627,0.0731,0.0754,0.0783,0.0762,0.0996,0.0999,0.1002,0.0962,0.0963,0.0964,0,0,0,0,0,0.0013,0.0068,0.0085,0.0111,0.0263,0.0362,0.0382,0.0443,0.044,0.0472,0.0537,0.0567,0.0764,0.074,0.0767,0.0799,0.0995,0.0998,0.1002,0.0962,0.0963,0.0964,0,0,0,0,0,0,-0.0033,0.0083,0.0104,0.0194,0.0267,0.0372,0.0414,0.0443,0.0521,0.0521,0.0597,0.0621,0.071,0.0764,0.0736,0.0881,0.0881,0.089,0.0842,0.0844,0.0845,0.0831,0.0769,0,0,0,0,0,-0.0033,0.0034,0.0134,0.0204,0.0239,0.032,0.0365,0.0405,0.0485,0.0517,0.059,0.0669,0.0748,0.0799,0.0878,0.097,0.0995,0.1005,0.1006,0.1006,0.1013,0.1065,0.107,0.1014,0.1014,0.1014,0,0,-0.0031,0.004,0.0079,0.0197,0.0258,0.0328,0.0346,0.042,0.0474,0.053,0.0622,0.0678,0.0771,0.0864,0.0909,0.0912,0.1034,0.101,0.101,0.1017,0.1069,0.1074,0.1079,0.1016,0.1016,0.1015,0,0,0.0008,0.0068,0.0133,0.0192,0.0283,0.0336,0.0351,0.0452,0.0489,0.0582,0.0625,0.0692,0.0827,0.0891,0.0941,0.1001,0.1032,0.1025,0.103,0.108,0.1084,0.1088,0.1109,0.1116,0.1031,0.1031,0.1031,0,-0.0001,0.0104,0.0163,0.0234,0.0284,0.0334,0.0401,0.0457,0.0571,0.0605,0.0606,0.0775,0.0842,0.095,0.0963,0.1003,0.1024,0.1013,0.1078,0.1083,0.1088,0.1109,0.1116,0.1029,0.103,0.103,0.103,0,0.0089,0.0161,0.0202,0.0305,0.0361,0.043,0.0501,0.0551,0.0585,0.0638,0.0732,0.0813,0.0908,0.0937,0.0973,0.105,0.1048,0.1063,0.1065,0.1091,0.1111,0.112,0.1027,0.1028,0.1028,0.1029,0,0,0.0106,0.0238,0.0253,0.0299,0.0402,0.046,0.0531,0.062,0.0661,0.0737,0.0799,0.091,0.0923,0.098,0.1024,0.1067,0.1108,0.1076,0.108,0.1079,0.1196,0.1185,0.1193,0.1128,0.113,0.1131,0.1188,0,0.0158,0.0283,0.0337,0.0439,0.0506,0.0553,0.0615,0.0686,0.0737,0.0803,0.0862,0.0939,0.095,0.0984,0.1029,0.1093,0.1132,0.109,0.1189,0.1191,0.1164,0.1204,0.1193,0.1243,0.1197,0.1198,0.12,0,0.0235,0.0307,0.0413,0.0505,0.0536,0.059,0.0675,0.0738,0.0819,0.0853,0.0914,0.0955,0.1033,0.1029,0.1138,0.1107,0.1151,0.1188,0.1192,0.1204,0.1197,0.1218,0.1261,0.1268,0.1213,0.1212,0.1211,0,0.0236,0.036,0.0439,0.0478,0.0587,0.0624,0.0672,0.0752,0.0801,0.0877,0.091,0.0994,0.1041,0.1106,0.117,0.1161,0.1273,0.1274,0.1305,0.1303,0.1327,0.1325,0.1378,0.1354,0.1354,0.1354,0.1354,0,0.0288,0.0352,0.044,0.0489,0.0562,0.0625,0.0696,0.0748,0.0817,0.0879,0.0926,0.0983,0.1063,0.1131,0.1181,0.1263,0.1285,0.1316,0.1328,0.1311,0.1307,0.1342,0.134,0.1356,0.1356,0.1355,0.1355,0,0.0302,0.0364,0.0453,0.0548,0.0573,0.0623,0.0705,0.0756,0.0807,0.0884,0.0906,0.0989,0.1071,0.114,0.1249,0.1283,0.1368,0.1383,0.1339,0.1346,0.1373,0.1369,0.145,0.1464,0.143,0.143,0.1431,0,0.0331,0.0381,0.0479,0.0522,0.0568,0.0636,0.0686,0.0749,0.0799,0.0894,0.0933,0.1017,0.1088,0.1217,0.1288,0.1372,0.1389,0.1412,0.1403,0.1383,0.139,0.1386,0.1391,0.1413,0.1413,0.1413,0.1413,0,0.0376,0.0404,0.0471,0.0549,0.0605,0.0671,0.0738,0.0771,0.0847,0.0901,0.0983,0.1037,0.1146,0.123,0.132,0.1372,0.1406,0.1414,0.1426,0.141,0.1382,0.1397,0.1341,0.1413,0.1413,0.1413,0.1413,0.1413,0.0399,0.0444,0.052,0.0593,0.0649,0.071,0.0761,0.0817,0.0886,0.0977,0.1011,0.1095,0.1174,0.1298,0.135,0.1418,0.1423,0.144,0.1444,0.1448,0.1445,0.137,0.1435,0.1435,0.1435,0.1435,0.1436,0,0.0446,0.0496,0.0563,0.0653,0.071,0.0732,0.0807,0.0855,0.0927,0.0997,0.1064,0.1158,0.1238,0.1314,0.1399,0.1439,0.1456,0.1459,0.1457,0.1469,0.1436,0.1417,0.1443,0.1443,0.1443,0.1443,0.1443,0.1443,0.0478,0.0555,0.059,0.0696,0.0747,0.0826,0.0867,0.0924,0.0979,0.1081,0.1146,0.1194,0.1267,0.1357,0.1432,0.1452,0.1482,0.148,0.1505,0.1473,0.1471,0.147,0.1453,0.1486,0.1486,0.1532,0.1533,0.1533]},{"header":{"parameterUnit":"m.s-1","parameterCategory":1,"la1":30.2991,"la2":30.254,"lo1":-89.0895,"lo2":-89.0444,"dy":0.0017,"dx":0.0017,"nx":28,"ny":28,"refTime":"2025-08-21T03:00:00:Z","depth":0,"parameterNumber":3,"parameterNumberName":"V-component_of_WINDS"},"data":[0,0,0,0,0,0,0,0,0,0,0,0,0,0,0,0,0,0,0,0,0,0,0,0,0,0,0,0,0,0,0,0,0,0,0,0,0,0,0,0,0,0,0,0,0,0,0,0,0,0,0,0,0,0,0,0,0,0,0.786,0.7859,0,0.7746,0.7745,0.7743,0.7579,0.7576,0.7573,0.7571,0.746,0.746,0.7459,0,0,0,0,0,0,0,0,0,0,0,0,0,0.7942,0.7942,0.786,0.7859,0.7857,0.7746,0.7745,0.7743,0.758,0.7576,0.7573,0.7569,0.746,0.746,0.7459,0,0,0,0,0,0,0,0,0,0,0,0,0,0.7876,0.7941,0.786,0.7762,0.7752,0.7747,0.7745,0.7743,0.758,0.7576,0.7572,0.7568,0.746,0.746,0.7459,0.7542,0,0,0.7458,0.7458,0,0,0,0,0,0,0,0,0.788,0.7873,0.7778,0.7769,0.7758,0.7672,0.7733,0.7676,0.7581,0.7646,0.7571,0.7566,0.7534,0.7528,0.7516,0.7537,0.7532,0.7458,0.7458,0.7457,0.7457,0,0,0,0,0,0,0,0.7884,0.7877,0.7815,0.7777,0.7764,0.7726,0.7711,0.7721,0.7616,0.764,0.7627,0.7616,0.7528,0.7517,0.7512,0.7531,0.7458,0.7457,0.7457,0.7457,0.7617,0.7621,0,0,0,0,0,0,0.7903,0.7882,0.7819,0.7811,0.7809,0.7728,0.7712,0.7704,0.7615,0.7597,0.762,0.7609,0.7519,0.7513,0.7507,0.76,0.7457,0.7457,0.7457,0.7613,0.7618,0.7623,0,0,0,0,0,0,0.7905,0.7899,0.7823,0.7843,0.7831,0.7731,0.7724,0.7704,0.7692,0.76,0.7581,0.7627,0.7516,0.7508,0.7535,0.7594,0.7457,0.7456,0.7607,0.7614,0.7621,0.7786,0,0,0,0,0,0,0.7908,0.79,0.7929,0.7845,0.783,0.7851,0.7727,0.7705,0.7691,0.7676,0.7602,0.7585,0.7512,0.7536,0.7535,0.7591,0.7456,0.7602,0.761,0.7618,0.7774,0.7797,0.7817,0,0,0,0,0,0.7912,0.7981,0.7932,0.7925,0.7864,0.7855,0.7846,0.7759,0.7697,0.7726,0.7667,0.7588,0.7588,0.7541,0.7537,0.7594,0.7598,0.7608,0.7618,0.7765,0.7793,0.7816,0,0,0,0,0,0,0.8076,0.7968,0.7912,0.7956,0.7916,0.7827,0.7861,0.7791,0.7768,0.7755,0.7649,0.7634,0.7675,0.7637,0.7586,0.7671,0.7581,0.7591,0.7694,0.7719,0.774,0.7749,0.7456,0,0,0,0,0,0.8117,0.8117,0.8023,0.8071,0.8054,0.7962,0.7954,0.789,0.7845,0.7828,0.777,0.7731,0.7722,0.7719,0.7705,0.7768,0.7751,0.7806,0.7827,0.7845,0.7855,0.7887,0.7911,0.7656,0.7656,0.7656,0,0,0.8203,0.8144,0.815,0.8103,0.8064,0.8068,0.7948,0.7957,0.796,0.7829,0.7851,0.7808,0.7758,0.7804,0.7821,0.7773,0.7922,0.7858,0.7873,0.7873,0.79,0.7925,0.7946,0.7663,0.7662,0.7661,0,0,0.836,0.8315,0.8351,0.8314,0.8257,0.8195,0.8205,0.8127,0.8093,0.8112,0.8015,0.8018,0.8005,0.7973,0.7956,0.8104,0.8031,0.8103,0.8214,0.8246,0.8267,0.8284,0.8338,0.8359,0.8114,0.8114,0.8114,0,0.8474,0.8474,0.8378,0.8394,0.8377,0.8258,0.8294,0.8265,0.8207,0.8199,0.8146,0.8128,0.8086,0.8123,0.816,0.8149,0.8158,0.8111,0.8271,0.8287,0.8302,0.8353,0.8374,0.8123,0.8122,0.8121,0.812,0,0.8618,0.862,0.8656,0.8602,0.8589,0.8616,0.8526,0.8525,0.8463,0.8408,0.8432,0.8377,0.8351,0.8355,0.8295,0.8385,0.8358,0.829,0.8197,0.8337,0.8383,0.8402,0.8136,0.8133,0.813,0.8128,0,0,0.8875,0.8768,0.8783,0.8758,0.8687,0.8688,0.871,0.8683,0.8685,0.8651,0.8668,0.866,0.8597,0.8578,0.8513,0.8542,0.8666,0.8471,0.8468,0.851,0.8764,0.8816,0.884,0.8617,0.862,0.8623,0.8768,0,0.9019,0.9048,0.8964,0.9015,0.9018,0.8906,0.8926,0.8886,0.8836,0.8832,0.8777,0.8774,0.8691,0.8678,0.8702,0.8646,0.8716,0.8634,0.8634,0.8635,0.865,0.8863,0.8917,0.9057,0.8786,0.8789,0.8791,0,0.919,0.9163,0.9215,0.9143,0.9141,0.916,0.9129,0.9127,0.908,0.9042,0.9022,0.8947,0.8966,0.8878,0.8904,0.8851,0.8846,0.8819,0.8822,0.8819,0.8722,0.8867,0.9099,0.9121,0.8818,0.8816,0.8814,0,0.9373,0.935,0.9379,0.9361,0.9277,0.9293,0.9259,0.9208,0.9199,0.9174,0.9166,0.9145,0.9133,0.9119,0.9042,0.8984,0.9079,0.8983,0.9049,0.9052,0.9074,0.9073,0.931,0.9071,0.9071,0.907,0.907,0,0.9543,0.958,0.946,0.9478,0.9516,0.942,0.9462,0.9417,0.9373,0.9382,0.9285,0.9296,0.9192,0.9193,0.9133,0.9165,0.916,0.9132,0.9115,0.914,0.9144,0.9136,0.9125,0.9076,0.9074,0.9073,0.9072,0,0.9754,0.9675,0.9699,0.9618,0.9598,0.9631,0.9562,0.9577,0.9521,0.9534,0.9531,0.9445,0.9441,0.9362,0.9341,0.9301,0.9358,0.9323,0.9373,0.9362,0.9433,0.9428,0.9673,0.9701,0.9444,0.9447,0.9449,0,0.9867,0.9893,0.9815,0.9813,0.9784,0.9782,0.9771,0.9679,0.9673,0.9623,0.9644,0.9632,0.9616,0.9615,0.9552,0.9537,0.9501,0.9588,0.9498,0.9523,0.9504,0.9503,0.9506,0.9607,0.9611,0.9613,0.9615,0,1.0078,1.0038,1.0025,1.0,0.999,0.9967,0.9937,0.9942,0.984,0.9838,0.9832,0.982,0.9799,0.9789,0.9762,0.9729,0.9657,0.9644,0.9659,0.9685,0.9713,0.97,0.9426,0.9639,0.9637,0.9635,0.9634,0.9633,1.0243,1.0261,1.021,1.02,1.0168,1.0143,1.0153,1.0099,1.0091,1.0065,1.0012,1.0015,0.997,0.9926,0.9901,0.9903,0.9859,0.988,0.9885,0.9892,0.9906,0.9713,0.9898,0.9897,0.9896,0.9896,0.9895,0,1.0449,1.0411,1.0403,1.0364,1.0357,1.0288,1.0252,1.0252,1.0255,1.0219,1.0206,1.02,1.019,1.0127,1.0111,1.0125,1.0092,1.0124,1.0122,1.0116,0.9946,0.9935,1.0151,1.0151,1.0151,1.0151,1.0151,1.0151,1.0555,1.0583,1.0537,1.0549,1.0511,1.0511,1.0497,1.0475,1.0445,1.0443,1.0433,1.0392,1.0346,1.0325,1.0314,1.0296,1.0295,1.0339,1.0311,1.0153,1.0128,1.0104,1.0094,1.034,1.034,1.048,1.0481,1.0482]}]]